Weather History for Jacksonville NAS, FL

Change the Weather History Date:

Thursday, May 16, 2013

  Actual Average Record
Temperature  
Mean Temperature 74 °F -  
Max Temperature 84 °F 83 °F 93 °F (2003)
Min Temperature 64 °F 66 °F 57 °F (2014)
Cooling Degree Days 9    
Growing Degree Days 24 (Base 50)    
Moisture  
Dew Point 60 °F    
Average Humidity 61    
Maximum Humidity 81    
Minimum Humidity 39    
Precipitation  
Precipitation 0.00 in - - ()
Sea Level Pressure  
Sea Level Pressure 30.08 in    
Wind  
Wind Speed 10 mph (South)    
Max Wind Speed 14 mph    
Max Gust Speed -    
Visibility 10 miles    
Events      
Averages and records for this station are not official NWS values.
T = Trace of Precipitation, MM = Missing Value Source: NWS Daily Summary

Daily Weather History Graph

Daily Weather History Graph

Search for Another Location

Airport:

Trip Planner

Search our weather history database for the weather conditions in past years. The results will help you decide how hot, cold, wet, or windy it might be!

Date:

Astronomy

May. 16, 2013 Rise Set
Actual Time 6:32 AM EDT 8:14 PM EDT
Civil Twilight 6:05 AM EDT 8:40 PM EDT
Nautical Twilight 5:34 AM EDT 9:12 PM EDT
Astronomical Twilight 5:00 AM EDT 9:45 PM EDT
Moon 11:56 AM EDT (5/16) 12:40 AM EDT (5/16)
Length of Visible Light 14h 34m
Length of Day
13h 42m
Waxing Crescent, 35% of the Moon is Illuminated
May 16
Waxing Crescent
May 18
First Quarter
May 25
Full
May 31
Last Quarter
Jun 8
New

Hourly Weather History & Observations

Time (EDT) Temp. Heat Index Dew Point Humidity Pressure Visibility Wind Dir Wind Speed Gust Speed Precip Events Conditions
12:53 AM 72.0 °F - 61.0 °F 68% 30.09 in 10.0 mi South 12.7 mph - N/A   Scattered Clouds
1:53 AM 71.1 °F - 59.0 °F 66% 30.09 in 10.0 mi SSW 11.5 mph - N/A   Scattered Clouds
2:53 AM 70.0 °F - 59.0 °F 68% 30.07 in 10.0 mi SSW 10.4 mph - N/A   Partly Cloudy
3:53 AM 70.0 °F - 59.0 °F 68% 30.06 in 10.0 mi SSW 12.7 mph - N/A   Partly Cloudy
4:53 AM 69.1 °F - 59.0 °F 70% 30.06 in 10.0 mi SSW 10.4 mph - N/A   Clear
5:53 AM 68.0 °F - 59.0 °F 73% 30.07 in 10.0 mi SSW 8.1 mph - N/A   Scattered Clouds
6:53 AM 64.9 °F - 59.0 °F 81% 30.09 in 10.0 mi WSW 4.6 mph - N/A   Mostly Cloudy
7:53 AM 68.0 °F - 59.0 °F 73% 30.12 in 10.0 mi SW 8.1 mph - N/A   Mostly Cloudy
8:53 AM 73.0 °F - 61.0 °F 66% 30.13 in 10.0 mi SSW 9.2 mph - N/A   Mostly Cloudy
9:53 AM 73.9 °F - 61.0 °F 64% 30.14 in 10.0 mi SW 13.8 mph - N/A   Mostly Cloudy
10:53 AM 77.0 °F - 62.1 °F 60% 30.13 in 10.0 mi WSW 5.8 mph - N/A   Mostly Cloudy
11:53 AM 80.1 °F 81.2 °F 62.1 °F 54% 30.13 in 10.0 mi WSW 11.5 mph - N/A   Mostly Cloudy
12:53 PM 82.9 °F 83.3 °F 61.0 °F 47% 30.12 in 10.0 mi South 4.6 mph - N/A   Mostly Cloudy
1:53 PM 81.0 °F 81.7 °F 61.0 °F 50% 30.10 in 10.0 mi SE 6.9 mph - N/A   Mostly Cloudy
2:53 PM 82.0 °F 81.4 °F 55.0 °F 39% 30.08 in 10.0 mi ESE 5.8 mph - N/A   Overcast
3:53 PM 82.0 °F 82.0 °F 57.9 °F 44% 30.05 in 10.0 mi Variable 4.6 mph - N/A   Mostly Cloudy
4:53 PM 84.0 °F 83.5 °F 57.9 °F 41% 30.04 in 10.0 mi Variable 5.8 mph - N/A   Mostly Cloudy
5:53 PM 82.0 °F 83.8 °F 64.9 °F 56% 30.03 in 10.0 mi East 11.5 mph - N/A   Mostly Cloudy
6:53 PM 80.1 °F 81.9 °F 64.9 °F 60% 30.04 in 10.0 mi ESE 11.5 mph - N/A   Mostly Cloudy
7:53 PM 77.0 °F - 64.9 °F 66% 30.04 in 10.0 mi ESE 10.4 mph - N/A   Mostly Cloudy
8:53 PM 75.9 °F - 59.0 °F 56% 30.05 in 10.0 mi SSE 11.5 mph - N/A   Mostly Cloudy
9:53 PM 75.0 °F - 57.9 °F 55% 30.06 in 10.0 mi SE 9.2 mph - N/A   Mostly Cloudy
10:53 PM 73.9 °F - 62.1 °F 66% 30.08 in 10.0 mi South 8.1 mph - N/A   Mostly Cloudy
11:53 PM 73.0 °F - 63.0 °F 71% 30.08 in 10.0 mi SSE 9.2 mph - N/A   Mostly Cloudy